Regional Weather Roundup
Issued by NWS Bismarck, ND

Home | Current Version | Previous Version | Text Only | Print | Product List | Glossary On
Versions: 1 2 3 4 5 6 7 8 9 10 11 12 13 14 15 16 17 18 19 20 21 22 23 24 25 26 27 28 29 30 31 32 33 34 35 36 37 38 39 40 41 42 43 44 45 46 47 48 49 50
000
ASUS43 KBIS 162010
RWRBIS

NWR BROADCAST TEXT
NATIONAL WEATHER SERVICE BISMARCK ND
300 PM CDT TUE SEP 16 2014

NOTE: "FAIR" INDICATES FEW OR NO CLOUDS BELOW 12,000 FEET WITH NO
SIGNIFICANT WEATHER AND/OR OBSTRUCTIONS TO VISIBILITY.


CITY           SKY/WX    TMP DP  RH WIND       PRES   REMARKS
WILLISTON      SUNNY     72  33  24 E5        29.96F
MINOT          SUNNY     71  43  36 E7        29.94F
MINOT AFB      SUNNY     70  44  37 VRB2      29.94F
BISMARCK       SUNNY     73  47  39 E5        29.95F
DICKINSON      SUNNY     73  46  38 NE6       29.95F
GARRISON         N/A     70  46  42 VRB3      29.95F
HETTINGER ARPT SUNNY     74  46  36 CALM      29.96F
JAMESTOWN      SUNNY     68  45  43 SE3       29.97F
BEACH            N/A     73  43  33 NW6       29.98S
CARRINGTON     FAIR      72  39  30 SE8       29.98F
CROSBY         FAIR      73  36  25 SW5       29.95F
HARVEY         FAIR      72  39  30 E6        29.96F
HAZEN          FAIR      72  46  40 W7        29.95F
LINTON         FAIR      73  45  35 SE5       29.95F
MANDAN         FAIR      70  45  40 SE7       29.97S
OAKES            N/A     70  50  49 S6G16     29.97F
RUGBY          FAIR      72  39  30 CALM      29.95F
STANLEY        FAIR      70  36  28 NE5       29.96F
TIOGA          FAIR      72  36  26 NE7       29.99S
WATFORD CITY   FAIR      73  32  21 W3        29.94F
$$

CITY           SKY/WX    TMP DP  RH WIND       PRES   REMARKS
GRAND FORKS    MOSUNNY   73  41  31 SW6       29.95F
GRAND FORKS AF SUNNY     74  42  30 W6        29.97F
DEVILS LAKE    SUNNY     70  39  32 SW7       29.95F
FARGO          SUNNY     71  40  32 VRB3      29.99F
CANDO          FAIR      73  37  27 W6        29.96F
CAVALIER       FAIR      75  39  27 SW5       29.94F
GRAFTON        FAIR      73  41  31 SW7       29.94F
GWINNER        CLEAR     72  48  43 S9        29.99F
LANGDON        FAIR      73  37  27 SW9       29.95F
ROLLA            N/A     72  37  28 W9        29.97S
WALHALLA         N/A     72  41  33 E5        29.94F
$$

CITY           SKY/WX    TMP DP  RH WIND       PRES   REMARKS
ABERDEEN       SUNNY     69  50  50 S9        29.97F
MOBRIDGE       SUNNY     72  51  47 CALM      29.93F
BUFFALO          N/A     77  45  32 W5        29.91F
RAPID CITY     SUNNY     78  44  29 MISG      29.99F
GLASGOW        SUNNY     73  42  32 S6        29.94F
SIDNEY         SUNNY     73  39  29 E6        29.97F
WOLF POINT     MOSUNNY   76  37  24 VRB7      29.94F
GLENDIVE       MOSUNNY   72  43  35 CALM      29.97F
MILES CITY     SUNNY     76  47  35 VRB5      29.95F
BAKER          MOSUNNY   77  46  33 CALM      29.97F
$$

CITY           SKY/WX    TMP DP  RH WIND       PRES   REMARKS
BILLINGS       PTSUNNY   81  35  19 SW12      29.98F
GREAT FALLS    PTSUNNY   79  39  23 SW10      29.96F
REGINA         MOSUNNY   73  45  35 VRB7      29.91F
ESTEVAN        MOSUNNY   72  43  35 SW8       29.95F
$$




USA.gov is the U.S. government's official web portal to all federal, state and local government web resources and services.